Flag for Brazil Weather past 2 weeks in Salvador, Bahia, Brazil

Now
79 °F

Broken clouds.


Feels Like: 81 °F
Forecast: 71 / 79 °F
Wind: 9 mph from Southeast

Location: Salvador Aeroporto

Current Time: Aug 27, 2014 at 4:07:02 PM

Latest Report: Aug 27, 2014 at 3:00 PM


Visibility: N/A

Pressure: 29.98 "Hg

Humidity: 74%

Dew point: 70 °F

Location of SalvadorLocation

Historic Weather in Salvador — Graph

°F

Salvador temperature yesterday

Maximum temperature yesterday: 81 °F (at 11:00 AM)
Minimum temperature yesterday: 66 °F (at 6:00 AM)
Average temperature yesterday: 75 °F

Past Weeks' High & Low Weather Summary

 TemperatureHumidityPressure
High82 °F (Aug 17, 12:00 PM)100% (Aug 25, 2:00 PM)30.18 "Hg (Aug 25, 2:00 PM)
Low39 °F (Aug 25, 2:00 PM)54% (Aug 23, 3:00 PM)29.98 "Hg (Aug 27, 4:00 AM)
Average76 °F76%30.08 "Hg
* Reported Aug 12 2:00 PM — Aug 27 2:00 PM, Salvador, Weather by CustomWeather, © 2014

Note: Actual official high and low records may vary slightly from our data, if they occured in-between our weather recording intervals... More about our weather records

Advertising

Salvador weather history for previous 24 hours

 ConditionsComfort  
Time TempWeatherWind HumidityBarometerVisibility
2:00 PM
Aug 27
77 °FBroken clouds.8 mph79%29.98 "HgN/A
1:00 PM79 °FBroken clouds.12 mph74%30.01 "HgN/A
12:00 PM79 °FBroken clouds.12 mph79%30.01 "Hg5 mi
11:00 AM73 °FLight rain. Fog.8 mph94%30.04 "Hg2 mi
10:00 AM73 °FLight rain. Fog.12 mph89%30.07 "Hg2 mi
9:00 AM73 °FLight rain. Fog.3 mph94%30.07 "Hg2 mi
8:00 AM75 °FScattered clouds.3 mph89%30.04 "HgN/A
7:00 AM73 °FScattered clouds.3 mph94%30.04 "HgN/A
6:00 AM70 °FScattered clouds.3 mph94%30.01 "HgN/A
5:00 AM72 °FPassing clouds.2 mph94%30.01 "HgN/A
4:00 AM70 °FPassing clouds.2 mph94%29.98 "HgN/A
3:00 AM72 °FPassing clouds.2 mph88%30.01 "HgN/A
2:00 AM72 °FPassing clouds.3 mph88%30.01 "HgN/A
1:00 AM73 °FPassing clouds.8 mph83%30.04 "HgN/A
12:00 AM73 °FPassing clouds.8 mph83%30.07 "HgN/A
11:00 PM
Aug 26
75 °FPassing clouds.6 mph83%30.07 "HgN/A
10:00 PM77 °FPassing clouds.9 mph74%30.07 "HgN/A
9:00 PM77 °FPassing clouds.8 mph74%30.07 "HgN/A
8:00 PM77 °FPassing clouds.8 mph74%30.04 "HgN/A
7:00 PM75 °FPassing clouds.7 mph78%30.04 "HgN/A
6:00 PM73 °FPassing clouds.6 mph83%30.04 "HgN/A
5:00 PM75 °FScattered clouds.9 mph74%30.04 "HgN/A
4:00 PM77 °FBroken clouds.10 mph74%30.04 "HgN/A
Weather by CustomWeather, © 2014

See weather overviewHow to use our weather pages